Regional Weather Roundup
Issued by NWS Upton, NY

Current Version | Previous Version | Text Only | Print | Product List | Glossary On
Versions: 1 2 3 4 5 6 7 8 9 10 11 12 13 14 15 16 17 18 19 20 21 22 23 24 25 26 27
000 ASUS41 KOKX 190805 RWROKX Regional Weather Roundup National Weather Service New York NY 300 AM EST MON FEB 19 2018 Note: "FAIR" indicates few or no clouds below 12,000 feet with no significant weather and/or obstructions to visibility. NYZ071-072-176-178-NJZ106-104-190900- New York City Metro Area CITY SKY/WX TMP DP RH WIND PRES REMARKS Central Park FAIR 37 26 64 SE8 30.54S WCI 31 Bronx Bot Gard N/A 32 25 74 CALM 30.53F Bronx Lehman C N/A 36 27 69 SE7 N/A WCI 30 LaGuardia Arpt FAIR 36 25 64 SE8 30.53S WCI 30 Queens College N/A 34 27 75 SE3 N/A Kennedy Intl FAIR 33 30 88 E7 30.55R WCI 27 Breezy Point N/A 37 N/A N/A SE7 N/A WCI 32 Brooklyn Coll N/A 37 30 75 SE3 N/A Staten Island N/A 37 32 81 SE3 N/A Newark/Liberty MOCLDY 36 27 69 CALM 30.53R Teterboro FAIR 35 26 69 VRB5 30.52S WCI 31 $$ NYZ177-179-078>081-190900- Long Island New York CITY SKY/WX TMP DP RH WIND PRES REMARKS Jones Beach N/A 36 N/A N/A SE3 N/A Wantagh N/A 36 32 87 E5 N/A WCI 32 Hempstead NOT AVBL Matinecock Pt N/A 34 N/A N/A SE5 N/A WCI 30 Farmingdale FAIR 31 23 72 CALM 30.54R MacArthur/ISP FAIR 30 24 78 E5 30.53S WCI 25 Shirley FAIR 28 25 88 CALM 30.54S Mt Sinai Harb N/A N/A N/A N/A S5 N/A Westhampton FAIR 20 19 96 CALM 30.56S East Hampton FAIR 21 19 93 CALM 30.54S Southold N/A 28 27 93 SE2 N/A Montauk N/A 27 24 89 CALM 30.55F $$ NYZ052-065-067-190900- Hudson Valley CITY SKY/WX TMP DP RH WIND PRES REMARKS White Plains FAIR 28 25 88 CALM 30.50S Larchmont Harb N/A 34 N/A N/A E5 N/A WCI 30 Croton On Huds N/A N/A N/A N/A CALM N/A Somers N/A 28 23 80 SE5 N/A WCI 23 Brewster N/A 25 21 86 N1 N/A Newburgh CLEAR 27 23 86 CALM 30.49S Montgomery FAIR 19 17 92 CALM 30.48F Otisville N/A 21 19 93 S1 N/A Warwick N/A 30 23 74 SE5 N/A WCI 25 Suffern N/A 30 25 80 S1 N/A Poughkeepsie FAIR 22 18 85 CALM 30.49F Albany FAIR 28 18 66 S7 30.45F WCI 21 $$ NJZ001-105-106-008-010-013-015-019>022-104-190900- New Jersey CITY SKY/WX TMP DP RH WIND PRES REMARKS Newark/Liberty MOCLDY 36 27 69 CALM 30.53R Teterboro FAIR 35 26 69 VRB5 30.52S WCI 31 Caldwell FAIR 25 23 92 CALM 30.53S Somerville FAIR 23 22 96 CALM 30.51R Linden FAIR 32 28 86 CALM 30.53F Perth Amboy N/A 36 N/A N/A S6 N/A WCI 31 Sussex FAIR 22 20 92 CALM 30.48F Andover N/A 23 21 92 CALM 30.48S Trenton FAIR 30 25 81 E3 30.51S Millville FAIR 32 30 92 SE3 30.52S Atlantic City FAIR 39 34 82 S5 30.53S Wrightstown FAIR 30 28 94 CALM 30.49F Toms River FAIR 24 22 91 CALM 30.54S Belmar FAIR 33 31 92 S3 30.54S $$ PAZ047>061-062-071-190900- Eastern Pennsylvania CITY SKY/WX TMP DP RH WIND PRES REMARKS Philadelphia MOCLDY 35 27 72 SE6 30.52S WCI 30 Allentown FAIR 27 21 78 NE6 30.48F WCI 20 Scranton FAIR 35 24 64 SW6 30.41F WCI 30 $$ CTZ002-004>006-009-010-012-RIZ004-006-007-MAZ004-011-015-190900- Southern New England In CT CITY SKY/WX TMP DP RH WIND PRES REMARKS Bradley Intl FAIR 22 20 92 CALM 30.51F Hartford FAIR 24 21 88 CALM 30.53F FOG Danbury FAIR 22 19 89 CALM 30.51F Wtrbury/Oxford FAIR 27 21 78 SE3 30.50S Norwalk Harbor N/A N/A N/A N/A CALM N/A Bridgeport FAIR 31 27 85 NE3 30.53F Meriden FAIR 20 18 92 CALM 30.53F New Haven FAIR 24 20 84 CALM 30.53F Chester FAIR 28 21 74 CALM 30.52S Groton FAIR 25 22 88 CALM 30.54F Willimantic FAIR 21 18 88 CALM 30.53F In RI CITY SKY/WX TMP DP RH WIND PRES REMARKS Providence FAIR 27 24 89 W3 30.54F Block Island FAIR 31 26 82 SE3 30.55S Westerly FAIR 26 24 92 CALM 30.55S In MA CITY SKY/WX TMP DP RH WIND PRES REMARKS Boston FAIR 30 23 75 SW6 30.53F WCI 24 Worcester FAIR 26 18 71 CALM 30.47F Westfield FAIR 19 17 92 CALM 30.50F Provincetown FAIR 27 25 92 SE6 30.54F WCI 20 Nantucket FAIR 31 30 96 SE6 30.55R WCI 25 $$ ANZ330-335-338-340-345-350-353-355-190900- Coastal Marine Observations STATION/POSITION TIME SKY/WX TEMP WIND PRES VSBY WAVE AIR SEA DIR/SP/G HT/PER (UTC) (F) (DEG/KT/KT) (MB) (MI) (FT/S) NY Harb Entrance 0750 39 39 160/ 6/ 8 1034.0 1/ 9 20 S Fire Island 0750 41 42 130/ 6/ 8 1034.3 1/ 9 15 E Barnegat Li 0730 40 N/A 1/ 8 Hudson Canyon 0750 44 47 120/ 10/ 12 1034.1 2/10 Kings Point 0748 35 36 180/ 5/ 8 1034.7 Execution Rocks NOT AVBL Western LI Sound NOT AVBL Central LI Sound 0745 36 130/ 8/ 8 N/A 0 Robbins Reef 0748 38 140/ 5/ 8 1034.4 $$ >>>>>>>>>>>>>>>>>>>>>>>>>>>> KEY <<<<<<<<<<<<<<<<<<<<<<<<<<< > < > SKY/WX - Sky Condition/Present Weather < > TMP - Temperature in Fahrenheit < > DP - Dew Point in Fahrenheit < > RH - Relative Humidity in Percent < > WIND - Direction (from) and Speed in MPH < > PRES - Mean Sea Level Pressure (inches of Hg) < > WCI - Wind Chill Index < > VSB - Visibility in Miles < > HX - Heat Index < > TC - Temperature in Celsius < > VRB - Varibale Wind Direction < > < >>>>>>>>>>>>>>>>>>>>>>>>>>>> KEY <<<<<<<<<<<<<<<<<<<<<<<<<<<

USA.gov is the U.S. government's official web portal to all federal, state and local government web resources and services.